Find Otter

NORAD ID: 62623 Int'l Des: 2025-009 Owner: USNPS Country: US operational
LEOCIRCULARRETROGRADESSO

当前视图

正在加载3D地球...

About Otter

Otter (NORAD 62623) is a satellite launched Jan 14, 2025 by USNPS of US. It operates in LEO, CIRCULAR, RETROGRADE, SSO orbit with a mass of 10.00 kg.

即将过境

Passes for default location (London). Set your location on the main map for personalized predictions.

高度历史

Loading altitude history...

两行轨道根数

1 62623U 25009Q 26194.16833249 .00006261 00000-0 21597-3 0 9995
2 62623 97.4033 276.2320 0004353 198.5261 161.5822 15.30333848 82896
Epoch: Jul 13, 2026 • Age: 22 hours

当前状态

高度 487.0 km
远地点 / 近地点 N/A
速度 7.63 km/s
星下点 59.48°N, 61.56°W
发射日期 Jan 14, 2025
运行时间 1.4 years
类型 other

技术详情

分类 Payload
质量 10.00 kg
干质量 10.00 kg
总质量 10.00 kg
长度 0.30 m
直径 0.20 m
跨度 0.30 m
形状 Box+2 pan
制造商 USNPS
平台类型 Cubesat 6U
阶段状态 In Orbit
所有者/国家 USNPS/US

Most Searched